Probability
65 45 42 32 23 10 0 0 0 0 0 0 0 0 0 0 0 0 19 13 3 6 13 16 45 32 32 42 42 48 61 61 71 71 77 87 87 94 94 97 97 94 87 87 84 87 84 77 77
55 48 35 29 16 0 0 0 0 0 0 0 0 0 0 3 3 6 16 23 13 6 13 10 29 26 26 35 39 39 42 45 61 65 81 81 84 90 90 90 90 87 84 87 84 87 84 74 68
55 39 35 23 3 0 0 0 0 0 0 0 0 3 3 3 3 13 19 19 13 10 3 16 29 23 29 29 26 29 32 39 45 52 61 74 81 81 81 81 87 84 81 81 81 84 84 84 74
61 48 26 10 0 0 0 0 0 0 0 0 0 3 3 10 13 13 10 19 16 6 3 10 32 26 29 32 32 29 26 26 32 32 35 45 55 65 68 71 77 77 81 84 74 71 68 61 58
68 55 16 0 0 0 0 0 0 0 0 0 0 0 6 10 13 6 10 3 0 3 0 0 19 23 16 13 13 13 16 16 26 39 48 52 55 58 58 58 65 65 71 77 71 68 71 68 68
84 39 0 0 0 0 0 0 0 0 0 0 0 0 10 13 16 13 13 10 3 3 3 6 10 10 10 10 10 10 10 6 16 13 19 32 42 45 42 48 58 58 55 68 74 68 65 55 52
77 19 0 0 0 0 0 6 0 0 0 0 0 0 13 13 16 13 16 13 6 6 3 0 0 6 10 6 3 3 3 3 3 6 6 23 26 29 39 35 45 52 61 55 65 68 58 48 52
81 13 0 0 0 0 3 6 0 0 0 0 0 0 6 13 13 13 10 3 3 3 3 0 0 0 0 0 0 0 0 0 0 0 3 13 16 16 26 26 29 29 39 42 42 42 52 48 45
68 10 0 0 0 0 6 3 3 3 0 6 3 0 3 10 13 13 6 0 3 0 0 0 3 3 0 0 0 0 0 0 0 0 0 3 10 13 16 10 16 13 29 35 39 39 32 32 32
68 3 0 0 0 3 6 3 3 3 0 3 6 10 6 16 13 6 0 0 0 0 0 0 0 0 0 0 0 0 0 0 0 0 0 6 3 6 0 6 10 16 23 26 35 39 23 32 32
35 3 0 3 3 3 3 3 3 3 0 0 3 13 13 13 6 0 0 0 0 0 0 0 0 0 0 0 0 0 0 0 0 0 0 6 6 3 3 13 10 13 16 23 29 32 26 23 26
39 6 6 6 3 3 3 3 3 3 0 0 0 10 13 10 10 0 0 0 0 0 0 0 0 0 0 0 0 0 0 0 0 0 0 0 3 3 6 16 13 13 26 23 39 39 19 10 10
35 13 23 19 3 0 3 3 3 3 3 3 3 13 16 10 3 0 0 0 0 0 0 0 0 0 0 0 0 0 0 0 0 0 0 0 0 3 3 10 23 6 10 10 23 26 13 10 13
32 29 23 23 10 3 0 3 3 0 3 6 3 10 10 3 0 0 0 0 0 0 0 0 0 0 0 0 0 0 0 0 0 0 0 0 0 0 0 3 23 6 6 10 10 6 16 19 26
35 19 10 13 10 3 0 0 0 0 3 3 0 3 3 0 0 0 0 0 0 0 0 0 0 0 0 0 0 0 0 0 0 0 0 0 0 0 0 3 16 26 6 6 10 10 16 13 10
19 6 0 3 6 3 0 0 0 0 6 3 0 3 3 0 0 0 0 0 0 0 0 0 0 0 0 0 0 0 0 0 0 0 3 0 0 0 6 6 13 19 16 10 10 6 6 13 16
3 0 0 3 6 3 0 0 0 0 3 3 0 0 0 0 0 0 0 0 0 0 0 0 0 0 0 0 0 0 0 0 3 3 3 0 3 3 3 6 13 6 13 13 3 10 6 6 6
0 0 0 0 3 6 0 0 0 0 3 0 0 0 0 0 0 0 0 0 0 0 0 0 0 0 0 0 0 0 3 0 3 3 3 3 3 0 3 10 3 3 6 13 0 3 6 3 3
0 0 0 0 0 0 0 0 0 0 0 0 0 0 0 0 0 0 0 0 0 0 0 0 0 0 0 0 0 0 0 0 0 0 0 3 3 0 6 10 3 6 10 6 0 0 0 3 0
0 0 0 0 0 0 0 0 0 0 0 0 0 0 3 0 0 0 0 0 0 0 0 0 0 0 0 0 0 0 0 0 0 0 0 0 3 3 0 0 0 3 10 6 3 6 10 3 3
0 0 0 0 0 0 0 0 0 0 0 0 0 0 0 0 0 0 0 0 0 0 0 0 0 0 0 0 0 0 0 0 0 0 0 0 0 3 0 3 3 0 0 6 6 3 3 6 0
0 0 0 0 0 0 0 0 0 0 0 0 0 0 0 0 3 0 0 0 0 0 0 0 0 0 0 0 0 0 0 0 0 0 0 0 0 0 3 0 0 0 0 3 0 0 0 0 0
0 0 0 0 0 0 0 0 0 0 0 0 0 0 0 0 0 0 0 0 0 0 0 0 0 0 0 0 0 0 0 0 0 0 0 0 0 0 0 0 0 3 0 0 0 0 0 0 0
0 0 0 0 0 0 0 0 0 0 0 0 0 0 0 0 0 0 0 0 0 0 0 0 0 0 0 0 0 0 0 0 0 0 0 0 0 0 0 0 0 0 0 0 0 0 0 0 0
0 0 0 0 0 0 0 0 0 0 0 0 0 0 0 0 0 0 0 0 0 0 0 0 0 0 0 0 0 0 0 0 0 0 0 0 0 0 0 0 0 0 0 0 0 0 0 0 0
0 0 0 0 0 0 0 0 0 0 0 0 0 0 0 0 0 0 0 0 0 0 0 0 0 0 0 0 0 0 0 0 0 0 0 0 0 0 0 0 0 0 0 0 0 0 0 0 0
0 0 0 0 0 0 0 0 0 0 0 0 0 0 0 0 0 0 0 0 0 0 0 0 0 0 0 0 0 0 0 0 0 0 0 0 0 0 0 0 0 0 0 0 0 0 0 0 0
0 0 0 0 0 0 0 0 0 0 0 0 0 0 0 0 0 0 0 0 0 0 0 0 0 0 0 0 0 0 0 0 0 0 0 0 0 0 0 0 0 0 0 0 0 0 0 0 0
0 0 0 0 0 0 0 0 0 0 0 0 0 0 0 0 0 0 0 0 0 0 0 0 0 0 0 0 0 0 0 0 0 0 0 0 0 0 0 0 0 0 0 0 0 0 0 0 0
0 0 0 0 0 0 0 0 0 0 0 0 0 0 0 0 0 0 0 0 0 0 0 0 0 0 0 0 0 0 0 0 0 0 0 0 0 0 0 0 0 0 0 0 0 0 0 0 0
Height
5889 5889 5889 5890 5890 5890 5889 5890 5890 5890 5890 5889 5889 5888 5888 5888 5887 5888 5884 5882 5880 5879 5878 5877 5875 5874 5873 5872 5871 5871 5870 5870 5869 5869 5869 5869 5869 5869 5869 5869 5869 5869 5869 5870 5870 5870 5871 5871 5872
5889 5889 5890 5890 5890 5889 5889 5889 5889 5889 5888 5887 5887 5886 5886 5885 5884 5883 5881 5879 5878 5876 5875 5874 5872 5871 5870 5869 5868 5867 5866 5865 5865 5865 5865 5865 5865 5865 5865 5865 5865 5866 5866 5866 5867 5867 5868 5869 5869
5888 5889 5890 5890 5889 5889 5889 5888 5888 5887 5886 5886 5885 5884 5884 5883 5882 5880 5878 5876 5875 5873 5871 5870 5868 5867 5866 5864 5863 5862 5861 5860 5860 5860 5860 5860 5860 5860 5861 5861 5861 5862 5862 5863 5863 5864 5865 5866 5867
5888 5888 5889 5889 5888 5888 5887 5887 5886 5885 5885 5884 5883 5882 5881 5880 5879 5877 5875 5873 5871 5870 5868 5866 5864 5863 5861 5860 5858 5857 5856 5855 5855 5854 5854 5854 5854 5855 5855 5856 5856 5857 5858 5858 5859 5860 5861 5863 5863
5886 5887 5888 5887 5886 5886 5886 5885 5884 5884 5883 5882 5881 5880 5879 5878 5876 5874 5872 5870 5868 5866 5864 5862 5860 5858 5856 5855 5854 5852 5851 5850 5849 5848 5848 5847 5848 5848 5849 5850 5851 5852 5853 5854 5855 5856 5857 5859 5860
5885 5886 5886 5885 5885 5885 5884 5884 5883 5882 5881 5880 5879 5878 5876 5875 5873 5871 5869 5867 5865 5863 5860 5858 5856 5854 5852 5850 5848 5846 5845 5844 5843 5842 5841 5841 5841 5842 5843 5844 5845 5846 5847 5848 5850 5851 5853 5855 5856
5883 5884 5884 5883 5883 5883 5882 5881 5880 5879 5878 5878 5876 5875 5874 5872 5870 5869 5866 5864 5862 5859 5857 5855 5852 5850 5848 5845 5843 5841 5840 5838 5837 5836 5835 5835 5835 5835 5836 5837 5838 5840 5841 5843 5844 5846 5848 5850 5852
5880 5882 5881 5881 5881 5881 5880 5879 5878 5877 5876 5876 5874 5873 5871 5870 5868 5866 5864 5861 5859 5856 5854 5851 5849 5846 5844 5841 5839 5837 5835 5833 5832 5831 5829 5829 5828 5829 5829 5830 5832 5833 5835 5837 5839 5840 5843 5845 5847
5877 5879 5878 5878 5879 5879 5878 5877 5876 5875 5874 5873 5872 5870 5869 5867 5866 5863 5861 5859 5856 5854 5851 5849 5846 5843 5840 5838 5835 5833 5831 5829 5827 5825 5824 5823 5822 5822 5823 5823 5825 5826 5829 5831 5833 5835 5837 5839 5842
5874 5875 5875 5876 5876 5876 5876 5875 5874 5873 5872 5871 5869 5868 5866 5865 5863 5861 5859 5856 5854 5852 5849 5846 5843 5841 5838 5835 5832 5829 5827 5824 5822 5820 5819 5818 5817 5816 5817 5817 5818 5820 5822 5824 5827 5830 5832 5834 5837
5870 5871 5872 5872 5873 5873 5873 5873 5871 5871 5870 5868 5867 5866 5864 5863 5861 5859 5857 5854 5852 5850 5847 5844 5841 5838 5835 5832 5829 5826 5823 5820 5818 5816 5814 5813 5812 5811 5811 5811 5812 5813 5816 5818 5821 5823 5826 5829 5832
5866 5868 5869 5870 5870 5871 5871 5870 5869 5868 5868 5866 5865 5864 5862 5861 5859 5857 5855 5853 5851 5848 5846 5843 5840 5837 5833 5830 5827 5823 5820 5817 5814 5812 5810 5808 5807 5806 5805 5805 5806 5807 5809 5812 5815 5818 5821 5823 5827
5863 5865 5866 5867 5868 5868 5869 5868 5867 5866 5866 5864 5863 5862 5861 5859 5857 5856 5853 5852 5849 5847 5844 5842 5839 5836 5832 5829 5825 5821 5818 5814 5811 5808 5806 5804 5802 5801 5800 5800 5801 5802 5804 5806 5809 5812 5815 5819 5822
5859 5862 5864 5865 5866 5866 5866 5866 5865 5864 5863 5862 5861 5860 5859 5857 5856 5854 5852 5850 5848 5846 5844 5841 5838 5835 5831 5828 5824 5820 5816 5812 5809 5806 5803 5800 5798 5797 5795 5795 5796 5797 5799 5801 5803 5807 5810 5813 5817
5857 5860 5862 5863 5863 5864 5864 5864 5863 5862 5861 5860 5859 5858 5857 5856 5854 5853 5851 5850 5848 5845 5843 5840 5837 5834 5830 5827 5823 5819 5815 5811 5807 5803 5800 5797 5795 5793 5792 5791 5791 5792 5794 5796 5799 5802 5805 5809 5812
5855 5858 5860 5861 5861 5862 5863 5862 5861 5859 5858 5858 5857 5856 5855 5854 5853 5852 5850 5849 5847 5845 5842 5840 5837 5833 5830 5826 5822 5818 5814 5809 5805 5802 5798 5795 5792 5790 5789 5788 5788 5788 5790 5792 5795 5797 5800 5804 5808
5853 5856 5857 5858 5859 5859 5859 5859 5858 5857 5856 5855 5854 5854 5853 5853 5852 5851 5849 5848 5846 5844 5842 5839 5836 5833 5829 5826 5822 5817 5813 5809 5805 5801 5797 5794 5791 5788 5787 5785 5785 5785 5787 5789 5791 5794 5796 5799 5803
5851 5854 5855 5856 5856 5856 5856 5856 5855 5854 5853 5853 5852 5852 5851 5851 5850 5849 5848 5847 5846 5844 5841 5839 5836 5833 5829 5825 5821 5817 5813 5808 5804 5800 5796 5793 5790 5787 5785 5784 5783 5783 5784 5786 5788 5790 5793 5795 5799
5849 5852 5853 5853 5854 5854 5854 5854 5852 5851 5851 5850 5850 5850 5849 5849 5849 5848 5847 5846 5845 5843 5841 5838 5835 5832 5829 5825 5821 5817 5813 5808 5804 5800 5796 5792 5789 5786 5784 5782 5781 5781 5782 5783 5785 5787 5790 5792 5795
5847 5850 5851 5851 5851 5852 5852 5851 5850 5849 5848 5848 5848 5847 5847 5847 5847 5847 5846 5845 5844 5842 5840 5838 5835 5831 5828 5824 5820 5816 5812 5808 5804 5799 5796 5792 5789 5786 5784 5782 5781 5780 5781 5782 5783 5785 5787 5789 5792
5846 5847 5848 5849 5850 5850 5850 5850 5848 5847 5846 5846 5845 5845 5845 5846 5846 5846 5845 5845 5843 5841 5839 5837 5834 5831 5827 5824 5820 5816 5812 5808 5804 5800 5796 5792 5789 5786 5784 5782 5781 5780 5780 5781 5781 5783 5784 5786 5789
5844 5845 5846 5847 5848 5847 5848 5847 5846 5844 5843 5843 5843 5843 5843 5844 5844 5844 5844 5843 5842 5841 5838 5836 5833 5830 5827 5823 5820 5816 5812 5808 5804 5800 5796 5793 5790 5787 5784 5783 5781 5780 5780 5780 5780 5781 5782 5784 5786
5842 5843 5844 5845 5845 5845 5845 5844 5845 5842 5841 5841 5841 5841 5841 5842 5842 5843 5843 5842 5841 5839 5838 5835 5833 5830 5826 5823 5819 5815 5812 5808 5804 5800 5796 5793 5790 5788 5785 5783 5782 5781 5780 5780 5780 5780 5781 5782 5783
5840 5842 5843 5843 5843 5844 5842 5842 5842 5840 5839 5839 5839 5839 5839 5840 5840 5841 5841 5841 5840 5838 5837 5835 5832 5829 5826 5822 5819 5815 5811 5808 5804 5801 5797 5794 5791 5788 5786 5784 5783 5781 5780 5780 5779 5779 5779 5780 5781
5839 5841 5842 5842 5841 5841 5840 5839 5839 5837 5836 5836 5836 5837 5837 5838 5839 5839 5839 5839 5838 5837 5836 5834 5831 5828 5825 5821 5818 5815 5811 5808 5805 5801 5798 5795 5792 5789 5787 5785 5783 5782 5780 5779 5779 5778 5778 5778 5779
5837 5839 5840 5840 5839 5838 5837 5836 5836 5834 5833 5833 5834 5834 5835 5836 5836 5837 5837 5837 5837 5836 5834 5833 5830 5827 5824 5821 5817 5814 5811 5808 5805 5801 5798 5795 5793 5790 5788 5786 5784 5782 5780 5779 5778 5778 5777 5777 5777
5835 5836 5836 5836 5836 5835 5834 5833 5832 5830 5830 5830 5831 5832 5833 5833 5834 5835 5835 5835 5835 5834 5833 5831 5829 5826 5823 5820 5817 5814 5811 5808 5805 5802 5799 5796 5793 5791 5788 5786 5784 5782 5781 5779 5778 5777 5776 5775 5775
5833 5833 5833 5833 5832 5832 5832 5830 5829 5827 5827 5828 5828 5829 5830 5831 5832 5832 5833 5833 5833 5832 5831 5830 5828 5825 5823 5819 5816 5813 5810 5807 5804 5802 5799 5796 5794 5791 5789 5786 5784 5783 5781 5779 5778 5776 5775 5774 5773
5831 5831 5830 5829 5829 5828 5828 5829 5825 5824 5824 5825 5825 5826 5827 5828 5829 5830 5830 5831 5831 5830 5829 5828 5826 5824 5821 5819 5816 5813 5810 5807 5804 5801 5799 5796 5794 5791 5789 5787 5784 5782 5780 5779 5777 5775 5774 5773 5772
5827 5827 5827 5826 5825 5824 5824 5827 5821 5821 5821 5821 5822 5822 5823 5825 5826 5827 5828 5828 5828 5828 5827 5826 5824 5823 5820 5818 5815 5812 5809 5807 5804 5801 5799 5796 5794 5791 5789 5786 5784 5782 5780 5778 5776 5774 5773 5771 5770
Wind_Speed
5 3 2 3 3 1 2 3 3 3 3 4 5 6 6 7 8 10 11 12 13 13 14 15 15 15 16 17 17 17 17 17 17 17 16 16 16 16 16 16 16 17 17 16 16 15 15 15 15
6 5 4 4 2 0 1 2 3 4 5 5 6 7 8 9 10 11 12 14 14 15 16 17 17 18 19 20 21 21 21 21 21 20 19 19 19 18 18 19 19 19 19 18 17 17 16 15 15
7 6 5 3 2 2 1 2 4 5 6 7 8 9 9 11 12 13 14 15 16 17 17 18 19 20 21 22 23 23 24 24 24 24 23 22 22 21 21 21 21 21 21 20 19 18 17 16 15
9 7 6 5 4 4 4 5 6 6 8 9 10 10 11 12 13 14 15 16 18 18 19 20 21 21 21 22 23 24 26 26 27 28 28 27 26 25 24 23 23 23 22 21 21 20 18 17 16
10 9 8 8 6 6 6 7 8 8 9 10 11 11 12 13 14 15 16 18 19 20 20 21 21 21 22 23 23 25 26 27 28 29 29 29 28 28 27 26 25 24 24 24 23 21 20 19 18
12 10 10 9 8 8 9 10 10 9 9 10 12 13 14 14 15 16 17 18 19 19 20 20 20 21 22 22 23 23 24 25 26 28 29 29 29 29 29 29 28 27 25 25 24 22 21 20 19
14 12 12 11 10 10 10 10 10 10 11 12 13 14 14 15 15 16 17 17 18 18 18 18 19 19 20 20 21 21 22 23 24 26 27 28 29 29 30 31 31 30 29 26 24 24 24 22 21
16 14 14 12 11 10 10 10 10 11 11 12 13 13 14 14 15 16 16 16 16 16 16 17 17 18 18 19 19 20 21 22 22 24 25 26 27 28 29 30 31 31 30 30 27 25 25 24 23
17 16 15 13 12 11 11 10 10 11 12 12 12 13 13 14 14 14 14 15 15 15 15 16 16 16 16 17 18 19 19 20 21 22 22 23 25 27 28 29 30 30 30 30 30 27 26 25 24
18 17 16 14 14 12 11 10 10 11 11 11 12 12 12 13 13 13 13 13 13 13 14 14 15 15 15 16 17 18 18 19 19 20 20 21 22 24 25 27 28 30 29 29 29 28 28 26 25
19 18 16 14 12 11 11 10 10 11 11 12 12 12 12 12 12 12 12 12 11 11 12 12 13 14 15 16 16 16 17 17 18 19 20 20 20 21 23 25 26 27 28 29 28 28 28 27 25
20 17 16 14 12 11 10 10 11 11 11 12 12 11 11 11 11 11 10 10 10 10 10 11 12 13 14 15 15 15 15 15 16 17 18 18 19 20 21 23 24 25 26 27 28 26 27 28 27
20 18 15 13 12 11 11 10 11 11 11 12 12 11 10 10 10 9 8 8 8 8 9 10 12 13 13 14 15 15 14 14 15 15 15 16 18 19 20 21 22 24 24 25 27 26 26 26 26
20 18 16 14 13 12 11 11 12 12 12 12 12 11 10 9 8 7 7 7 7 7 8 10 11 12 13 14 15 15 15 14 13 13 13 14 15 15 17 18 19 20 22 23 24 26 26 26 25
18 16 15 14 13 12 11 12 12 12 12 13 12 11 10 8 7 6 6 5 5 7 8 9 11 12 14 15 15 15 16 15 13 12 12 12 12 12 13 14 16 18 19 20 22 24 25 25 24
16 14 14 13 13 13 13 13 13 13 13 13 12 11 9 7 6 5 4 4 5 6 8 9 11 12 13 15 15 16 16 16 14 13 12 11 11 10 10 11 13 15 17 18 20 21 23 25 25
16 14 13 13 13 13 13 14 14 13 13 12 11 10 9 7 6 5 3 3 4 5 7 9 11 12 13 14 15 16 16 16 15 14 12 11 11 9 8 8 10 12 14 16 18 19 20 22 24
14 13 13 13 13 13 13 14 14 14 13 12 11 10 8 7 6 5 3 2 3 5 7 8 10 12 13 14 15 16 16 16 16 14 13 12 10 9 7 6 7 9 12 14 15 17 18 20 23
13 13 12 13 12 12 13 14 15 14 13 12 11 10 8 7 6 5 4 2 3 4 6 8 10 11 12 14 15 15 16 17 16 15 14 12 10 9 7 5 4 5 8 12 13 14 16 17 20
14 13 12 12 12 12 12 13 15 14 13 12 11 10 8 7 6 6 5 3 3 4 6 8 9 11 12 13 14 15 16 16 16 15 14 13 11 9 7 5 3 2 4 8 10 13 15 16 18
14 13 13 12 12 12 12 12 15 14 13 12 11 10 9 8 7 6 5 4 3 4 6 8 9 11 12 13 14 15 16 16 16 16 14 13 12 10 8 7 4 2 2 4 7 10 12 14 17
14 14 13 12 12 12 12 12 14 14 13 12 11 10 9 8 7 7 6 4 3 4 5 7 9 11 12 13 14 15 16 16 16 16 15 13 12 11 9 8 6 4 1 2 4 7 10 12 15
14 13 12 11 12 12 13 13 12 13 13 12 11 10 9 9 8 7 6 5 4 4 6 7 9 11 12 13 14 14 15 15 16 16 15 14 12 11 10 8 7 5 3 1 1 4 6 9 11
13 12 12 11 12 13 13 13 11 12 12 11 10 10 10 9 9 8 7 6 4 4 6 7 9 11 12 13 14 14 14 14 15 15 15 14 12 11 10 9 8 6 5 3 2 2 4 6 9
11 11 11 12 13 13 13 13 12 12 12 11 11 11 11 10 9 8 7 6 5 5 6 7 9 11 12 13 13 13 13 13 14 14 14 13 12 11 10 9 8 7 6 4 3 2 2 4 7
11 11 12 13 13 14 14 13 13 13 12 12 11 12 11 11 10 9 8 7 6 5 6 8 9 11 12 12 12 12 12 13 13 14 14 13 12 11 11 10 9 8 7 6 4 4 3 4 5
11 12 13 14 14 14 13 12 13 14 13 12 12 12 13 12 11 10 9 8 7 6 7 8 9 10 11 12 12 11 12 12 12 13 13 13 12 11 11 11 10 9 8 7 6 5 4 4 4
12 13 14 14 15 14 13 13 14 15 14 13 13 14 14 14 13 11 10 9 8 7 7 8 8 9 11 11 11 11 12 12 12 12 12 12 12 11 11 10 10 10 9 8 7 6 6 5 5
13 13 14 15 15 15 14 12 15 15 14 14 14 15 15 15 14 13 11 10 9 8 7 7 8 9 10 10 11 11 11 12 12 11 11 12 12 11 11 10 10 10 9 8 8 7 6 6 6
15 16 16 17 17 16 16 13 15 15 15 15 16 16 16 16 15 14 13 12 10 9 8 8 8 8 9 10 10 10 11 11 11 11 11 12 12 12 11 11 10 10 9 9 9 8 7 6 6
Wind_Direction
292 306 312 315 313 192 157 176 201 240 270 288 303 306 302 301 301 298 299 298 296 295 295 294 291 288 286 284 282 280 277 275 272 267 262 257 254 249 245 242 240 238 236 236 236 235 236 236 235
283 305 312 301 301 180 150 181 243 270 284 298 305 304 302 302 301 300 299 298 296 295 294 293 292 289 286 284 283 282 280 277 274 271 265 259 256 252 247 245 243 241 238 237 237 237 237 237 237
272 291 292 282 280 259 256 268 276 284 289 298 304 302 301 302 302 302 300 298 298 298 297 296 294 292 289 285 283 281 280 277 274 271 267 261 258 255 252 248 246 245 241 238 237 237 238 238 238
264 278 274 272 273 272 274 288 289 290 294 300 301 300 301 301 301 301 301 301 301 301 300 299 297 295 291 288 284 281 278 275 273 271 266 263 259 256 254 251 248 247 242 240 238 237 237 237 237
256 267 272 272 270 275 281 287 290 287 292 299 300 300 301 301 302 302 303 304 304 304 303 302 300 297 293 290 287 283 279 275 271 270 266 263 260 257 254 251 250 249 244 241 239 236 236 236 236
250 258 263 263 267 276 291 293 291 287 290 296 298 299 300 302 304 306 307 308 308 307 306 305 303 300 296 293 289 285 282 277 272 269 266 264 261 258 255 253 250 248 246 244 242 238 236 236 236
245 250 258 265 271 277 294 295 291 288 292 294 297 299 301 303 305 308 310 311 311 311 311 309 306 304 301 298 294 290 286 282 277 272 269 265 264 260 257 253 250 247 245 244 244 240 238 237 236
244 248 254 261 266 274 287 295 291 291 292 293 296 298 302 306 307 309 312 314 315 316 315 313 311 309 305 302 298 294 289 286 282 278 274 269 266 262 259 255 251 247 247 245 244 240 239 237 234
241 245 250 256 262 274 282 290 290 289 291 293 296 295 299 305 309 311 315 318 320 320 320 319 318 316 312 309 306 301 295 290 286 282 278 273 268 264 261 257 253 249 247 246 245 241 237 236 234
237 242 250 256 261 273 281 289 293 293 292 294 297 296 300 306 311 315 319 322 324 326 327 327 325 323 320 317 313 307 301 295 290 286 283 279 273 268 263 259 256 251 249 246 243 239 236 236 233
235 242 249 254 263 274 284 289 292 296 296 295 295 297 301 308 314 319 323 326 330 333 337 338 338 337 334 330 325 318 310 303 296 289 284 281 277 272 266 260 256 251 248 246 244 238 237 235 235
233 240 246 257 269 279 286 291 290 294 296 295 295 298 303 311 318 322 326 332 337 342 348 350 351 349 346 343 339 331 322 314 306 298 288 282 279 274 268 262 257 251 246 244 243 239 236 234 234
232 238 245 255 265 273 280 282 284 291 296 295 298 301 304 311 319 322 328 337 344 352 356 358 358 357 354 352 349 344 336 325 316 307 298 290 284 277 270 263 257 251 246 241 239 237 236 232 231
230 236 243 252 260 267 272 277 281 289 293 296 297 298 302 309 316 321 330 339 350 359 3 4 4 2 1 359 355 352 348 340 331 320 310 301 293 282 273 266 257 250 245 240 237 236 235 231 229
228 236 242 249 258 261 267 275 282 287 291 294 294 295 299 306 311 318 329 343 356 2 7 8 8 7 6 4 1 358 355 351 345 337 327 316 305 292 280 268 257 249 244 239 236 235 234 230 226
225 232 240 246 254 257 266 276 281 283 289 291 290 292 294 297 301 309 322 341 356 3 8 9 9 8 7 6 5 4 2 359 355 348 341 332 320 304 288 273 258 249 241 235 233 234 232 229 227
219 225 237 246 257 261 265 272 275 280 284 286 285 286 286 285 287 294 302 329 352 3 9 9 8 8 7 6 7 7 5 3 0 356 350 345 338 323 303 282 262 247 238 233 233 235 231 227 226
213 220 233 246 254 258 263 272 277 281 283 283 281 279 275 271 271 277 279 307 342 358 4 3 3 5 6 6 6 7 7 6 4 1 359 355 351 343 327 302 273 248 236 231 233 233 232 227 224
209 219 235 247 253 258 265 275 280 282 283 282 280 277 267 259 260 263 263 287 326 348 357 357 359 2 4 4 5 5 6 7 7 6 5 3 358 353 348 332 295 255 235 231 233 234 232 228 224
208 220 234 247 253 264 269 276 280 282 283 280 278 273 261 251 253 255 258 275 308 339 352 356 358 0 2 2 2 4 5 6 7 8 9 9 8 7 4 356 333 278 238 231 233 232 230 232 228
211 223 235 249 260 271 276 281 284 283 282 278 273 265 253 244 246 247 252 264 294 331 347 352 356 358 359 360 1 2 4 6 7 9 9 11 14 15 15 12 10 353 247 231 233 229 229 229 228
216 229 241 253 266 276 282 287 284 283 280 275 268 258 247 239 239 241 247 256 286 323 339 347 352 355 357 359 359 1 3 6 8 10 12 14 17 20 21 21 24 27 17 248 239 229 227 228 227
221 234 247 260 273 283 288 290 286 282 279 272 263 252 243 238 234 235 243 253 280 315 333 343 348 352 355 356 357 359 2 6 9 12 14 16 19 22 24 24 24 24 20 0 265 237 233 231 228
227 241 255 268 280 287 288 289 286 280 275 266 257 248 242 237 232 234 241 251 273 305 326 337 344 348 351 353 355 359 3 6 9 12 15 17 19 22 24 25 24 23 20 18 344 264 244 236 232
234 247 264 277 283 287 286 287 284 276 266 258 249 243 240 235 231 234 239 249 268 295 318 331 339 345 349 352 356 359 3 6 10 12 14 16 18 19 21 22 21 21 20 15 359 326 275 249 243
238 251 263 275 283 288 287 285 279 273 261 253 247 241 238 233 231 233 237 248 264 287 310 325 335 343 348 352 356 360 3 5 9 12 14 16 18 19 20 19 18 15 13 10 3 349 320 281 265
245 255 267 277 283 287 288 282 275 271 259 251 245 241 237 233 232 233 237 248 261 280 302 318 331 340 347 352 357 0 1 4 8 11 14 14 15 16 17 18 16 13 8 4 359 351 336 309 290
254 261 269 278 285 288 287 281 274 268 261 253 246 242 237 233 233 234 239 247 257 274 294 311 326 337 345 352 356 359 1 2 4 8 10 12 12 12 11 11 10 9 5 360 354 345 337 322 309
259 266 273 277 281 287 287 281 273 265 258 253 247 241 237 235 234 235 239 245 254 267 285 303 320 332 342 348 353 356 360 1 3 5 6 8 9 8 7 5 3 2 359 354 349 340 334 327 316
265 269 275 280 282 281 281 277 270 264 258 253 249 242 239 237 235 236 238 243 251 261 275 294 311 326 337 344 348 353 357 360 3 4 3 4 4 4 2 360 358 356 354 352 349 344 337 330 320